Home   Weather   Saint-Pierre   Past weeks

Flag for Saint Pierre and Miquelon Past Weather in Saint-Pierre, Saint Pierre and Miquelon — Yesterday and Last 2 Weeks

Now
43 °F

Fog.


Feels Like: 38 °F
Forecast: 40 / 42 °F
Wind: 8 mph from Southwest

Location: Saint-Pierre

Current Time: Apr 27, 2017 at 11:23:21 am

Latest Report: Apr 27, 2017 at 11:00 am


Visibility: 1 mi

Pressure: 30.33 "Hg

Humidity: 93%

Dew Point: 41 °F

Location of Saint-PierreLocation

Past Weather in Saint-Pierre — Graph

°F

Saint-Pierre Temperature Yesterday

Maximum temperature yesterday: 39 °F (at 12:00 pm)
Minimum temperature yesterday: 28 °F (at 7:00 am)
Average temperature yesterday: 36 °F

High & Low Weather Summary for the Past Weeks

 TemperatureHumidityPressure
High46 °F (Apr 22, 5:00 pm)100% (Apr 13, 10:00 am)30.57 "Hg (Apr 13, 10:00 am)
Low25 °F (Apr 18, 8:00 am)45% (Apr 25, 11:00 am)29.59 "Hg (Apr 17, 2:00 pm)
Average36 °F76%30.15 "Hg
* Reported Apr 12 10:00 am — Apr 27 10:00 am, Saint-Pierre, Weather by CustomWeather, © 2017

Note: Actual official high and low records may vary slightly from our data, if they occured in-between our weather recording intervals... More about our weather records

Advertising

Saint-Pierre Weather History for the Previous 24 Hours

Scroll right to see more
 ConditionsComfort  
Time TempWeatherWind HumidityBarometerVisibility
10:00 am
Thu, Apr 27
43 °FFog.12 mph93%30.30 "Hg1 mi
9:00 am41 °FFog.7 mph93%30.30 "Hg2 mi
8:00 am41 °FFog.7 mph93%30.30 "Hg3 mi
7:00 am39 °FFog.10 mph93%30.30 "Hg3 mi
6:00 am39 °FFog.13 mph93%30.30 "Hg3 mi
10:00 pm
Wed, Apr 26
36 °FMostly cloudy.5 mph87%30.45 "HgN/A
9:00 pm36 °FMostly cloudy.6 mph87%30.45 "HgN/A
8:00 pm37 °FMostly cloudy.10 mph81%30.45 "HgN/A
7:00 pm37 °FSunny.12 mph81%30.45 "Hg10 mi
6:00 pm37 °FSunny.12 mph75%30.48 "Hg10 mi
5:00 pm37 °FSunny.12 mph75%30.51 "Hg10 mi
4:00 pm39 °FSunny.8 mph65%30.51 "Hg10 mi
3:00 pm39 °FSunny.8 mph75%30.54 "Hg10 mi
2:00 pm39 °FPassing clouds.6 mph75%30.54 "HgN/A
1:00 pm37 °FPassing clouds.7 mph75%30.54 "HgN/A
12:00 pm39 °FSunny.7 mph70%30.57 "Hg10 mi
11:00 am37 °FSunny.8 mph75%30.57 "Hg10 mi
Weather by CustomWeather, © 2017

See weather overviewHow to use our weather pages